{"data":{"norad_id":52095,"intl_designator":"2022-029H","name":"STARLINK-3701","alt_names":[],"object_type":"PAYLOAD","status":"ACTIVE","operator":null,"country":"US","launch_date":"2022-03-19","launch_site_code":"AFETR","launch_vehicle":null,"mission":null,"orbit_class":"UNKNOWN","rcs_meters":null,"size_class":null,"mass_kg":null,"dimensions":null,"purposes":["comms"],"wikipedia_slug":null,"has_3d_model":false,"image_url":null,"decayed_at":null,"tle_current":{"epoch":"2026-05-25T02:34:01.657632Z","epoch_age_seconds":75973,"freshness":"FRESH","line1":"1 52095U 22029H   26145.10696363  .00013725  00000+0  87754-3 0  9999","line2":"2 52095  53.2161 106.0714 0002170  91.2035 268.9206 15.08890974232191","mean_motion":15.08890974,"eccentricity":0.000217,"inclination_deg":53.2161,"raan_deg":106.0714,"arg_perigee_deg":91.2035,"mean_anomaly_deg":268.9206,"bstar":0.00087754,"rev_number":23219,"period_min":95.43433056549,"perigee_km":538.08643998966,"apogee_km":541.08873246008,"semimajor_km":6917.7245862249,"source":"CELESTRAK","updated_at":"2026-05-25T13:38:17.001250Z"}}}